Location: Zlin
(49.2330°N, 17.6670°E)
Time: 05:44:41
(UTC+01:00)

ISS - Visible Passes

Search period start: 19 January 2019 00:00
Search period end: 29 January 2019 00:00
Orbit: 404 x 411 km, 51.6° (Epoch: 19 January)

Date Brightness Start Highest point End Pass type
(mag) Time Alt. Az. Time Alt. Az. Time Alt. Az.
23 Jan -2.1 18:39:06 10° SSW 18:40:56 24° S 18:40:56 24° S visible
24 Jan -2.0 17:48:22 10° S 17:50:48 19° SE 17:51:51 17° ESE visible
24 Jan -1.0 19:23:40 10° WSW 19:24:35 17° WSW 19:24:35 17° WSW visible
25 Jan -3.5 18:32:21 10° SW 18:35:26 55° SSE 18:35:26 55° SSE visible
26 Jan -2.9 17:41:11 10° SW 17:44:16 36° SSE 17:46:13 18° E visible
26 Jan -1.5 19:17:24 10° W 19:18:57 25° W 19:18:57 25° W visible
27 Jan -3.9 18:25:55 10° WSW 18:29:14 87° NNW 18:29:40 64° ENE visible
28 Jan -3.7 17:34:31 10° WSW 17:37:47 68° SSE 17:40:21 16° ENE visible
28 Jan -1.9 19:11:09 10° W 19:13:04 30° WNW 19:13:04 30° WNW visible
